This demonstration page uses our WeatherBlox Daily Observations layout. Learn more.

Left ArrowRight Arrow

Hourly Observations for December 1, 2020

Temp ( °F °C ) Dew Point ( °F °C ) Humidity (%) Winds ( mph kmh ) Pressure ( in mb ) Visibility ( mi km ) Precip ( " mm )
12:15 am 00:15 Clear 25 -3.7 16 -9.1 67 67 S 5 7 30.06 1018 10 16.0934 0 0
12:35 am 00:35 Clear 25 -3.8 15 -9.2 66 66 S 3 6 30.05 1018 10 16.0934 0 0
12:55 am 00:55 Clear 24 -4.2 16 -9 70 70 SSW 5 7 30.06 1018 10 16.0934 0 0
1:15 am 01:15 Clear 24 -4.6 16 -9.1 71 71 S 3 6 30.06 1018 10 16.0934 0 0
1:35 am 01:35 Clear 21 -6.2 13 -10.5 72 72 SSE 5 7 30.07 1018 10 16.0934 0 0
1:55 am 01:55 Clear 19 -7.2 13 -10.6 77 77 SE 7 11 30.07 1018 10 16.0934 0 0
2:15 am 02:15 Clear 22 -5.5 15 -9.3 75 75 S 5 7 30.05 1018 10 16.0934 0 0
2:35 am 02:35 Clear 20 -6.6 14 -10.1 76 76 S 3 6 30.06 1018 10 16.0934 0 0
2:55 am 02:55 Clear 21 -5.9 14 -9.8 74 74 S 3 6 30.06 1018 10 16.0934 0 0
3:15 am 03:15 Clear 20 -6.7 14 -10.2 76 76 WSW 3 6 30.08 1019 10 16.0934 0 0
3:35 am 03:35 Clear 18 -7.8 13 -10.8 79 79 Calm 30.08 1019 10 16.0934 0 0
3:55 am 03:55 Clear 18 -7.9 13 -10.7 81 81 Calm 30.07 1018 10 16.0934 0 0
4:15 am 04:15 Clear 21 -6.3 15 -9.3 80 80 SSW 3 6 30.06 1018 10 16.0934 0 0
4:35 am 04:35 Clear 17 -8.5 12 -11.3 80 80 S 5 7 30.07 1018 10 16.0934 0 0
4:55 am 04:55 Clear 16 -8.8 12 -11.1 84 84 Calm 30.08 1019 10 16.0934 0 0
5:15 am 05:15 Clear 19 -7.5 14 -9.9 83 83 Calm 30.07 1018 10 16.0934 0 0
5:35 am 05:35 Clear 16 -9.1 11 -11.5 83 83 Calm 30.07 1018 10 16.0934 0 0
5:55 am 05:55 Clear 15 -9.4 11 -11.9 82 82 Calm 30.08 1019 10 16.0934 0 0
6:15 am 06:15 Clear 15 -9.5 10 -12.5 79 79 Calm 30.09 1019 10 16.0934 0 0
6:35 am 06:35 Clear 18 -7.6 14 -10.1 82 82 SE 3 6 30.06 1018 10 16.0934 0 0
6:55 am 06:55 Clear 16 -9.1 11 -11.5 83 83 SW 3 6 30.07 1018 10 16.0934 0 0
7:15 am 07:15 Clear 16 -9 11 -11.4 83 83 Calm 30.07 1018 10 16.0934 0 0
7:35 am 07:35 Clear 15 -9.5 11 -11.9 83 83 SSW 3 6 30.09 1019 10 16.0934 0 0
7:55 am 07:55 Sunny 19 -7.3 14 -9.8 83 83 Calm 30.07 1018 10 16.0934 0 0
8:15 am 08:15 Sunny 20 -6.9 15 -9.7 81 81 SW 3 6 30.06 1018 10 16.0934 0 0
8:35 am 08:35 Sunny 21 -6.2 16 -8.8 82 82 NW 5 7 30.07 1018 10 16.0934 0 0
8:55 am 08:55 Sunny 25 -3.8 19 -7.5 76 76 Calm 30.05 1018 10 16.0934 0 0
9:15 am 09:15 Sunny 26 -3.1 19 -7.4 73 73 Calm 30.04 1017 10 16.0934 0 0
9:35 am 09:35 Sunny 29 -1.7 20 -6.9 68 68 WNW 6 9 30.04 1017 10 16.0934 0 0
9:55 am 09:55 Sunny 34 0.9 21 -6.3 59 59 WNW 7 11 30.02 1016 10 16.0934 0 0
10:15 am 10:15 Sunny 40 4.4 21 -6.3 46 46 NW 10 17 29.98 1015 10 16.0934 0 0
10:35 am 10:35 Sunny 43 6.1 19 -7.3 38 38 NNW 8 13 29.97 1015 10 16.0934 0 0
10:55 am 10:55 Sunny 45 7 18 -8 34 34 N 14 22 29.96 1015 10 16.0934 0 0
11:15 am 11:15 Sunny 45 7 18 -7.7 35 35 N 13 20 29.97 1015 10 16.0934 0 0
11:35 am 11:35 Sunny 46 7.8 19 -7.4 34 34 N 14 22 29.95 1014 10 16.0934 0 0
11:55 am 11:55 Sunny 49 9.3 19 -7.2 31 31 N 12 19 29.94 1014 10 16.0934 0 0
12:15 pm 12:15 Sunny 50 9.9 18 -7.6 29 29 NNW 13 20 29.93 1014 10 16.0934 0 0
12:35 pm 12:35 Sunny 48 9 18 -7.8 30 30 N 12 19 29.94 1014 10 16.0934 0 0
12:55 pm 12:55 Sunny 48 9.1 18 -7.7 30 30 NNW 14 22 29.94 1014 10 16.0934 0 0
1:15 pm 13:15 Sunny 49 9.5 19 -7.5 30 30 N 14 22 29.93 1013 10 16.0934 0 0
1:35 pm 13:35 Sunny 49 9.7 18 -7.8 29 29 N 13 20 29.94 1014 10 16.0934 0 0
1:55 pm 13:55 Sunny 49 9.2 18 -7.7 30 30 N 15 24 29.94 1014 10 16.0934 0 0
2:15 pm 14:15 Sunny 49 9.2 19 -7.3 31 31 N 13 20 29.94 1014 10 16.0934 0 0
2:35 pm 14:35 Sunny 49 9.5 19 -7 31 31 N 13 20 29.95 1014 10 16.0934 0 0
2:55 pm 14:55 Sunny 49 9.7 19 -7.1 30 30 N 13 20 29.95 1014 10 16.0934 0 0
3:15 pm 15:15 Sunny 49 9.5 19 -7.1 31 31 NNW 13 20 29.96 1014 10 16.0934 0 0
3:35 pm 15:35 Sunny 49 9.2 19 -7 31 31 N 14 22 29.97 1015 10 16.0934 0 0
3:55 pm 15:55 Sunny 48 8.8 20 -6.8 33 33 N 14 22 29.97 1015 10 16.0934 0 0
4:15 pm 16:15 Sunny 47 8.5 20 -6.7 34 34 N 10 17 29.99 1015 10 16.0934 0 0
4:35 pm 16:35 Sunny 46 8 20 -6.7 35 35 N 10 17 30 1016 10 16.0934 0 0
4:55 pm 16:55 Sunny 44 6.9 20 -6.8 37 37 N 9 15 30.02 1017 10 16.0934 0 0
5:15 pm 17:15 Clear 43 6.2 19 -7 39 39 N 8 13 30.04 1017 10 16.0934 0 0
5:35 pm 17:35 Clear 42 5.4 19 -7 41 41 NNW 8 13 30.05 1018 10 16.0934 0 0
5:55 pm 17:55 Clear 42 5.5 20 -6.7 41 41 N 9 15 30.05 1018 10 16.0934 0 0
6:15 pm 18:15 Clear 41 5.1 20 -6.7 43 43 NNW 9 15 30.08 1019 10 16.0934 0 0
6:35 pm 18:35 Clear 40 4.5 20 -6.8 44 44 N 12 19 30.09 1019 10 16.0934 0 0
6:55 pm 18:55 Clear 39 4 20 -6.6 46 46 N 13 20 30.11 1020 10 16.0934 0 0
7:15 pm 19:15 Clear 38 3.6 20 -6.5 48 48 N 9 15 30.12 1020 10 16.0934 0 0
7:35 pm 19:35 Clear 35 1.8 20 -6.9 53 53 N 7 11 30.15 1021 10 16.0934 0 0
7:55 pm 19:55 Clear 32 0 19 -7.2 59 59 N 6 9 30.18 1022 10 16.0934 0 0
8:15 pm 20:15 Clear 31 -0.3 19 -7.3 60 60 N 5 7 30.19 1022 10 16.0934 0 0
8:35 pm 20:35 Clear 32 0 19 -7.3 58 58 NNW 8 13 30.2 1023 10 16.0934 0 0
8:55 pm 20:55 Clear 33 0.6 20 -6.7 58 58 N 9 15 30.19 1022 10 16.0934 0 0
9:15 pm 21:15 Clear 33 0.8 20 -6.7 58 58 N 8 13 30.2 1023 10 16.0934 0 0
9:35 pm 21:35 Clear 33 0.6 20 -6.6 59 59 N 9 15 30.21 1023 10 16.0934 0 0
9:55 pm 21:55 Clear 33 0.6 20 -6.5 59 59 N 9 15 30.22 1023 10 16.0934 0 0
10:15 pm 22:15 Clear 32 0.1 21 -6.3 62 62 N 9 15 30.22 1024 10 16.0934 0 0
10:35 pm 22:35 Clear 32 -0.2 20 -6.4 63 63 N 8 13 30.24 1024 10 16.0934 0 0
10:55 pm 22:55 Clear 32 0 22 -5.6 66 66 N 9 15 30.25 1024 10 16.0934 0 0
11:15 pm 23:15 Clear 33 0.3 23 -5 68 68 N 10 17 30.25 1024 10 16.0934 0 0
11:35 pm 23:35 Clear 34 1.1 25 -4.1 69 69 N 10 17 30.24 1024 10 16.0934 0 0
11:55 pm 23:55 Clear 35 1.8 25 -3.7 67 67 N 13 20 30.25 1024 10 16.0934 0 0

Powered by AerisWeather